WB8ZTP Weather Reports


Display with metric or nautical units.
time (UTC)temp
F
wind
direction
speed
MPH
gust
MPH
rain 1hr
in
rain 24hr
in
rain mn
in
humidity
%
barometer
mb
20260903160017 87 305 2.0 5.0 0.00 0.00 0.00 73 1017.1
20260903154514 86 232 1.0 5.0 0.00 0.00 0.00 75 1017.2
20260903153010 85 169 2.0 5.0 0.00 0.00 0.00 75 1017.3
20260903151507 85 283 3.0 8.0 0.00 0.00 0.00 76 1017.2
20260903150005 84 188 2.0 6.0 0.00 0.00 0.00 77 1017.3
20260903144503 83 290 3.0 7.0 0.00 0.00 0.00 79 1017.3
20260903143109 83 224 2.0 6.0 0.00 0.00 0.00 80 1017.3
20260903141557 82 217 2.0 6.0 0.00 0.00 0.00 80 1017.3
20260903140054 81 258 1.0 4.0 0.00 0.00 0.00 81 1017.3
20260903134551 80 209 3.0 7.0 0.00 0.00 0.00 83 1017.4
20260903133051 79 178 2.0 6.0 0.00 0.00 0.00 84 1017.5
20260903131600 78 170 3.0 6.0 0.00 0.00 0.00 85 1017.5
20260903130041 77 217 2.0 6.0 0.00 0.00 0.00 87 1017.7
20260903124541 75 202 1.0 6.0 0.00 0.00 0.00 89 1017.7
20260903123041 74 191 1.0 4.0 0.00 0.00 0.00 90 1017.8
20260903121538 73 215 1.0 4.0 0.00 0.00 0.00 91 1017.7
20260903120040 72 203 1.0 4.0 0.00 0.00 0.00 91 1017.6
20260903114538 72 203 0.0 3.0 0.00 0.00 0.00 91 1017.6
20260903113041 72 203 0.0 3.0 0.00 0.00 0.00 91 1017.5
20260903111534 72 203 0.0 2.0 0.00 0.00 0.00 91 1017.4
20260903110032 72 203 0.0 2.0 0.00 0.00 0.00 90 1017.2
20260903104530 72 203 0.0 2.0 0.00 0.00 0.00 90 1017.0
20260903103027 73 203 0.0 2.0 0.00 0.00 0.00 90 1016.9
20260903101525 73 203 0.0 2.0 0.00 0.00 0.00 90 1016.9
20260903100025 73 203 0.0 3.0 0.00 0.00 0.00 90 1016.8
20260903094524 73 203 1.0 4.0 0.00 0.00 0.00 90 1016.6
20260903093029 73 229 2.0 5.0 0.00 0.00 0.00 90 1016.6
20260903091526 73 225 1.0 4.0 0.00 0.00 0.00 89 1016.6
20260903090024 73 199 1.0 4.0 0.00 0.00 0.00 89 1016.6
20260903084524 74 195 1.0 4.0 0.00 0.00 0.00 89 1016.6
20260903083019 74 200 0.0 4.0 0.00 0.00 0.00 89 1016.6
20260903081519 74 202 0.0 4.0 0.00 0.00 0.00 89 1016.5
20260903080018 74 200 1.0 4.0 0.00 0.00 0.00 89 1016.6
20260903074518 74 182 1.0 4.0 0.00 0.00 0.00 89 1016.6
20260903073016 74 182 1.0 4.0 0.00 0.00 0.00 89 1016.6
20260903071515 74 228 1.0 4.0 0.00 0.00 0.00 89 1016.7
20260903070014 75 198 1.0 3.0 0.00 0.00 0.00 88 1016.8
20260903064516 75 198 1.0 4.0 0.00 0.00 0.00 88 1016.8
20260903063010 75 193 1.0 4.0 0.00 0.00 0.00 88 1016.8
20260903061515 76 175 1.0 5.0 0.00 0.00 0.00 87 1016.9
20260903060014 76 171 1.0 4.0 0.00 0.00 0.00 86 1016.8
20260903054509 77 141 2.0 4.0 0.00 0.00 0.00 86 1016.8
20260903053006 77 203 1.0 6.0 0.00 0.00 0.00 86 1016.6
20260903051505 77 192 2.0 4.0 0.00 0.00 0.00 86 1016.4
20260903050002 76 202 1.0 4.0 0.00 0.00 0.00 87 1016.4
20260903044600 76 188 1.0 5.0 0.00 0.00 0.00 87 1016.3
20260903043058 75 191 2.0 4.0 0.00 0.00 0.00 88 1016.2
20260903041605 75 205 1.0 4.0 0.00 0.00 0.00 88 1016.1
20260903040055 75 142 1.0 3.0 0.00 0.00 0.00 88 1016.0
20260903034600 75 140 1.0 4.0 0.00 0.00 0.00 88 1016.1
20260903033054 75 139 1.0 5.0 0.00 0.00 0.00 88 1016.2
20260903031554 75 177 0.0 4.0 0.00 0.00 0.00 89 1016.4
20260903030053 74 185 0.0 2.0 0.00 0.00 0.00 90 1016.6
20260903024554 74 207 0.0 2.0 0.00 0.00 0.00 89 1016.7
20260903023115 74 207 0.0 2.0 0.00 0.00 0.00 90 1016.8
20260903021552 75 207 0.0 0.0 0.00 0.00 0.00 90 1016.7
20260903020056 75 207 0.0 2.0 0.00 0.00 0.00 89 1016.7
20260903014550 75 207 0.0 2.0 0.00 0.00 0.00 89 1016.8
20260903013052 75 207 0.0 1.0 0.00 0.00 0.00 89 1016.6
20260903011557 76 207 0.0 2.0 0.00 0.00 0.00 88 1016.5
20260903010049 76 207 0.0 2.0 0.00 0.00 0.00 88 1016.5
20260903004548 77 207 0.0 2.0 0.00 0.00 0.00 87 1016.3
20260903003048 78 207 0.0 1.0 0.00 0.00 0.00 86 1016.2
20260903001550 79 207 0.0 2.0 0.00 0.00 0.00 84 1016.1
20260903000049 81 207 0.0 2.0 0.00 0.00 0.00 82 1016.1
20260902234559 82 207 0.0 2.0 0.00 0.00 0.00 78 1016.0
20260902233046 84 207 0.0 6.0 0.00 0.00 0.00 74 1016.1
20260902231546 86 198 0.0 6.0 0.00 0.00 0.00 71 1016.1
20260902230048 88 186 2.0 7.0 0.00 0.00 0.00 65 1016.1
20260902224545 89 189 3.0 6.0 0.00 0.00 0.00 63 1016.1
20260902223044 89 205 2.0 6.0 0.00 0.00 0.00 63 1016.1
20260902221543 90 225 2.0 9.0 0.00 0.00 0.00 60 1016.1
20260902220042 90 207 4.0 10.0 0.00 0.00 0.00 59 1016.1
20260902214542 91 148 4.0 7.0 0.00 0.00 0.00 61 1016.1
20260902213041 90 179 2.0 9.0 0.00 0.00 0.00 62 1016.2
20260902211540 91 188 3.0 11.0 0.00 0.00 0.00 61 1016.2
20260902210039 91 207 3.0 9.0 0.00 0.00 0.00 59 1016.3
20260902204538 92 201 2.0 10.0 0.00 0.00 0.00 60 1016.4
20260902203036 92 193 4.0 11.0 0.00 0.00 0.00 61 1016.6
20260902201537 91 199 6.0 14.0 0.00 0.00 0.00 59 1016.6
20260902200033 91 197 4.0 12.0 0.00 0.00 0.00 62 1016.9
20260902194532 90 205 1.0 4.0 0.00 0.00 0.00 65 1016.9
20260902193028 87 227 1.0 3.0 0.00 0.00 0.00 72 1017.2
20260902191528 88 283 1.0 2.0 0.00 0.00 0.00 75 1017.3
20260902190029 88 283 0.0 2.0 0.00 0.00 0.00 74 1017.5
20260902184527 89 283 0.0 3.0 0.00 0.00 0.00 71 1017.5
20260902183027 91 207 2.0 5.0 0.00 0.00 0.00 63 1017.6
20260902181525 91 188 4.0 7.0 0.00 0.00 0.00 64 1017.9
20260902180022 90 198 3.0 7.0 0.00 0.00 0.00 65 1018.1
20260902174520 89 208 2.0 7.0 0.00 0.00 0.00 67 1018.3
20260902173033 89 205 2.0 6.0 0.00 0.00 0.00 70 1018.5
20260902171516 88 199 2.0 7.0 0.00 0.00 0.00 71 1018.5
20260902170013 88 232 3.0 8.0 0.00 0.00 0.00 71 1018.5
20260902164510 87 152 2.0 5.0 0.00 0.00 0.00 73 1018.7
20260902163008 87 163 1.0 5.0 0.00 0.00 0.00 73 1018.8
20260902161505 86 183 2.0 7.0 0.00 0.00 0.00 74 1019.0